Location: ????????
(37.6846°N, 24.0673°E)
Time: 13:48:49
(UTC+00:00)

Cosmos 1743 - Pass Details

Date: 14 July 2020
Orbit: 511 x 526 km, 82.6° (Epoch: 03 August)

Event Time Altitude Azimuth Distance (km) Brightness Sun altitude
Exits shadow 01:27:32 39° 200° (SSW) 781 3.1 -17.4°
Maximum altitude 01:28:51 75° 277° (W) 536 2.6 -17.3°
Drops below altitude 10° 01:32:40 10° 3° (N) 1,748 6.1 -16.7°
Sets 01:34:49 0° 6° (N) 2,642 7.1 -16.4°
